Zurück zum Katalog

THOR BURNER 2 R/B

AktivSSO
NORAD 5556·ROCKET BODY·🇺🇸 United States

Gestartet Oct 14, 1971 von Vandenberg Space Force Base

Loading…

Nächste Überflüge (nächste 24 Stunden)

TLE

AktuellSource: Space-Track

Epoche: Sep 14, 2026, 05:01 UTC

1 05556U 71087B   26257.20949751  .00000053  00000-0  43305-4 0  9990
2 05556  99.1166 229.0237 0060812 265.3954  94.0276 14.24063221847205

Verfolge THOR BURNER 2 R/B in Echtzeit mit AllMySat

Download on the App Store